EJU76FR EDDL-LIMC

Flight info

Callsign EJU76FR
Flight time 1h 34m
Altitude 23000
Route KUMIK5Z KUMIK L603 BOMBI/N0444F270 N850 UBENO/N0417F230 N850 RINEX/N0457F330 DCT KRH/N0457F320 DCT NATOR/N0456F330 DCT TRA N850 DEGAD Z424 BASGO/N0463F290 Z424 AKASU/N0394F190 Z424 RIXUV
Aircraft A319/M-SDE3FGHIRWY/LB1

Departure

Time 2026-05-05 19:11
Airport Düsseldorf Airport (EDDL)

Arrival

Time 2026-05-05 20:46
Airport Milan Malpensa International Airport (LIMC)
Time Latitude Longitude Altitude Speed Heading
2026-05-05 18:50 51.28044 6.76219 126 ft 0 kts 162°
2026-05-05 19:03 51.28055 6.76213 126 ft 2 kts 165°
2026-05-05 19:03 51.28071 6.76207 127 ft 2 kts 172°
2026-05-05 19:03 51.28088 6.76206 128 ft 2 kts 197°
2026-05-05 19:03 51.28104 6.76214 126 ft 2 kts 173°
2026-05-05 19:04 51.28117 6.76202 129 ft 2 kts 90°
2026-05-05 19:04 51.28115 6.76180 125 ft 1 kts 61°
2026-05-05 19:04 51.28114 6.76176 127 ft 0 kts 57°
2026-05-05 19:06 51.28115 6.76180 125 ft 2 kts 56°
2026-05-05 19:06 51.28129 6.76209 130 ft 4 kts 53°
2026-05-05 19:06 51.28149 6.76252 130 ft 6 kts 53°
2026-05-05 19:07 51.28171 6.76271 129 ft 2 kts 329°
2026-05-05 19:07 51.28173 6.76269 129 ft 0 kts 328°
2026-05-05 19:08 51.28181 6.76258 130 ft 4 kts 320°
2026-05-05 19:08 51.28214 6.76209 125 ft 8 kts 302°
2026-05-05 19:08 51.28188 6.76131 127 ft 9 kts 228°
2026-05-05 19:08 51.28143 6.76049 127 ft 11 kts 231°
2026-05-05 19:09 51.28095 6.75946 128 ft 12 kts 233°
2026-05-05 19:09 51.28038 6.75829 128 ft 14 kts 232°
2026-05-05 19:09 51.27973 6.75696 128 ft 16 kts 232°
2026-05-05 19:09 51.27930 6.75582 125 ft 7 kts 278°
2026-05-05 19:10 51.27973 6.75545 129 ft 8 kts 333°
2026-05-05 19:10 51.27998 6.75523 126 ft 3 kts 333°
2026-05-05 19:10 51.28035 6.75493 125 ft 10 kts 334°
2026-05-05 19:10 51.28109 6.75516 123 ft 14 kts 44°
2026-05-05 19:11 51.28276 6.75861 129 ft 76 kts 53°
2026-05-05 19:11 51.28737 6.76828 133 ft 140 kts 52°
2026-05-05 19:11 51.29354 6.78135 631 ft 146 kts 50°
2026-05-05 19:11 51.29964 6.79435 1305 ft 146 kts 51°
2026-05-05 19:12 51.30610 6.80795 1763 ft 164 kts 51°
2026-05-05 19:12 51.31348 6.82348 2104 ft 188 kts 52°
2026-05-05 19:12 51.32193 6.84127 2469 ft 213 kts 53°
2026-05-05 19:12 51.33139 6.86125 2954 ft 238 kts 53°
2026-05-05 19:13 51.34154 6.88328 3628 ft 252 kts 54°
2026-05-05 19:13 51.35076 6.90751 4440 ft 260 kts 71°
2026-05-05 19:13 51.35236 6.93647 5268 ft 267 kts 98°
2026-05-05 19:13 51.34937 6.96606 6176 ft 272 kts 100°
2026-05-05 19:14 51.34625 6.99608 7012 ft 276 kts 99°
2026-05-05 19:14 51.34308 7.02677 7478 ft 280 kts 99°
2026-05-05 19:14 51.33990 7.05755 7853 ft 281 kts 99°
2026-05-05 19:14 51.33671 7.08853 8235 ft 283 kts 99°
2026-05-05 19:15 51.33351 7.11970 8687 ft 286 kts 99°
2026-05-05 19:15 51.33030 7.15122 9603 ft 289 kts 99°
2026-05-05 19:15 51.32705 7.18358 10138 ft 305 kts 99°
2026-05-05 19:15 51.32410 7.21818 10555 ft 321 kts 97°
2026-05-05 19:16 51.32016 7.25359 11250 ft 327 kts 109°
2026-05-05 19:16 51.30929 7.28548 11992 ft 330 kts 130°
2026-05-05 19:16 51.29245 7.31042 12755 ft 333 kts 141°
2026-05-05 19:16 51.27469 7.33424 13562 ft 335 kts 137°
2026-05-05 19:17 51.25853 7.36117 14265 ft 336 kts 134°
2026-05-05 19:17 51.24250 7.38851 14952 ft 339 kts 134°
2026-05-05 19:17 51.22631 7.41618 15544 ft 343 kts 134°
2026-05-05 19:17 51.20995 7.44422 16175 ft 346 kts 134°
2026-05-05 19:18 51.19344 7.47246 16785 ft 350 kts 134°
2026-05-05 19:18 51.17672 7.50098 17402 ft 354 kts 134°
2026-05-05 19:18 51.16009 7.52937 18032 ft 357 kts 134°
2026-05-05 19:18 51.14307 7.55839 18593 ft 360 kts 134°
2026-05-05 19:19 51.12588 7.58763 19155 ft 362 kts 134°
2026-05-05 19:19 51.10860 7.61693 19724 ft 364 kts 134°
2026-05-05 19:19 51.09126 7.64632 20316 ft 365 kts 134°
2026-05-05 19:19 51.07378 7.67587 20882 ft 368 kts 134°
2026-05-05 19:20 51.05619 7.70557 21424 ft 371 kts 134°
2026-05-05 19:20 51.03843 7.73552 21981 ft 373 kts 134°
2026-05-05 19:20 51.02046 7.76574 22359 ft 381 kts 134°
2026-05-05 19:20 51.00191 7.79686 22535 ft 393 kts 134°
2026-05-05 19:21 50.98291 7.82868 22769 ft 402 kts 134°
2026-05-05 19:21 50.96338 7.86137 22825 ft 414 kts 134°
2026-05-05 19:21 50.94341 7.89486 22822 ft 424 kts 134°
2026-05-05 19:21 50.92294 7.92918 22820 ft 428 kts 134°
2026-05-05 19:22 50.90246 7.96349 22930 ft 428 kts 134°
2026-05-05 19:22 50.88194 7.99774 23204 ft 430 kts 134°
2026-05-05 19:22 50.86126 8.03217 23449 ft 432 kts 134°
2026-05-05 19:22 50.84070 8.06687 23675 ft 434 kts 131°
2026-05-05 19:23 50.82300 8.10555 23993 ft 435 kts 124°
2026-05-05 19:23 50.80646 8.14511 24678 ft 427 kts 124°
2026-05-05 19:23 50.79015 8.18390 25402 ft 419 kts 124°
2026-05-05 19:23 50.77410 8.22185 26148 ft 412 kts 124°
2026-05-05 19:24 50.75828 8.25913 26908 ft 405 kts 125°
2026-05-05 19:24 50.74269 8.29582 27562 ft 401 kts 125°
2026-05-05 19:24 50.72735 8.33189 28058 ft 401 kts 125°
2026-05-05 19:24 50.71160 8.36828 28489 ft 402 kts 128°
2026-05-05 19:25 50.69288 8.40105 28887 ft 403 kts 138°
2026-05-05 19:25 50.67064 8.42801 29252 ft 405 kts 148°
2026-05-05 19:25 50.64597 8.44965 29626 ft 408 kts 151°
2026-05-05 19:25 50.62070 8.47017 29974 ft 410 kts 157°
2026-05-05 19:26 50.59305 8.48161 30303 ft 414 kts 173°
2026-05-05 19:26 50.56419 8.48160 30654 ft 416 kts 180°
2026-05-05 19:26 50.53511 8.47953 30976 ft 418 kts 180°
2026-05-05 19:26 50.50598 8.47734 31303 ft 419 kts 180°
2026-05-05 19:27 50.47692 8.47515 31771 ft 417 kts 180°
2026-05-05 19:27 50.44804 8.47301 32266 ft 414 kts 180°
2026-05-05 19:27 50.41925 8.47145 32706 ft 412 kts 179°
2026-05-05 19:27 50.39069 8.47084 32807 ft 407 kts 178°
2026-05-05 19:28 50.36296 8.47079 32823 ft 392 kts 177°
2026-05-05 19:28 50.33587 8.47097 32833 ft 386 kts 177°
2026-05-05 19:28 50.28219 8.47112 32819 ft 386 kts 178°
2026-05-05 19:29 50.22842 8.47076 32815 ft 386 kts 178°
2026-05-05 19:29 50.17496 8.47012 32813 ft 386 kts 178°
2026-05-05 19:30 50.12118 8.46945 32811 ft 386 kts 178°
2026-05-05 19:30 50.06745 8.46884 32805 ft 387 kts 178°
2026-05-05 19:31 50.01360 8.46836 32797 ft 387 kts 178°
2026-05-05 19:31 49.95974 8.46784 32794 ft 387 kts 178°
2026-05-05 19:32 49.91487 8.46733 32806 ft 388 kts 178°
2026-05-05 19:32 49.86086 8.46677 32812 ft 388 kts 178°
2026-05-05 19:33 49.80683 8.46624 32805 ft 389 kts 178°
2026-05-05 19:33 49.75267 8.46574 32807 ft 389 kts 178°
2026-05-05 19:34 49.69848 8.46515 32812 ft 390 kts 178°
2026-05-05 19:35 49.61464 8.46435 32838 ft 416 kts 179°
2026-05-05 19:35 49.55569 8.46386 32838 ft 428 kts 179°
2026-05-05 19:36 49.49602 8.46316 32835 ft 429 kts 179°
2026-05-05 19:36 49.43621 8.46244 32850 ft 429 kts 179°
2026-05-05 19:37 49.37644 8.46192 32835 ft 429 kts 179°
2026-05-05 19:37 49.31709 8.46138 32833 ft 429 kts 179°
2026-05-05 19:38 49.25731 8.46068 32834 ft 429 kts 179°
2026-05-05 19:38 49.19759 8.46001 32827 ft 429 kts 180°
2026-05-05 19:39 49.13786 8.45944 32823 ft 429 kts 180°
2026-05-05 19:39 49.07819 8.45897 32824 ft 428 kts 180°
2026-05-05 19:40 49.01863 8.45838 32828 ft 428 kts 180°
2026-05-05 19:40 48.95901 8.45778 32827 ft 429 kts 180°
2026-05-05 19:41 48.89926 8.45722 32831 ft 429 kts 180°
2026-05-05 19:41 48.83951 8.45663 32832 ft 429 kts 180°
2026-05-05 19:42 48.78024 8.45608 32828 ft 429 kts 180°
2026-05-05 19:42 48.72053 8.45546 32833 ft 429 kts 181°
2026-05-05 19:43 48.66084 8.45480 32835 ft 429 kts 181°
2026-05-05 19:43 48.60106 8.45422 32840 ft 429 kts 181°
2026-05-05 19:44 48.54133 8.45369 32837 ft 429 kts 181°
2026-05-05 19:44 48.48163 8.45316 32838 ft 429 kts 181°
2026-05-05 19:45 48.42187 8.45256 32850 ft 429 kts 181°
2026-05-05 19:45 48.36211 8.45201 32849 ft 429 kts 181°
2026-05-05 19:46 48.30236 8.45140 32850 ft 429 kts 181°
2026-05-05 19:46 48.24264 8.45082 32860 ft 429 kts 181°
2026-05-05 19:47 48.18300 8.45023 32860 ft 428 kts 181°
2026-05-05 19:47 48.12337 8.44941 32863 ft 428 kts 182°
2026-05-05 19:48 48.06418 8.44762 32869 ft 428 kts 183°
2026-05-05 19:48 48.00463 8.44564 32867 ft 428 kts 183°
2026-05-05 19:49 47.94496 8.44399 32870 ft 428 kts 182°
2026-05-05 19:49 47.88532 8.44239 32875 ft 428 kts 183°
2026-05-05 19:50 47.82571 8.44068 32883 ft 428 kts 183°
2026-05-05 19:50 47.76618 8.43901 32875 ft 428 kts 183°
2026-05-05 19:51 47.70668 8.43741 32875 ft 427 kts 183°
2026-05-05 19:51 47.64724 8.44325 32902 ft 428 kts 177°
2026-05-05 19:52 47.58803 8.45200 32913 ft 427 kts 177°
2026-05-05 19:52 47.52893 8.46067 32916 ft 426 kts 177°
2026-05-05 19:53 47.46987 8.46927 32907 ft 426 kts 178°
2026-05-05 19:53 47.41090 8.47788 32911 ft 426 kts 178°
2026-05-05 19:54 47.35200 8.48665 32910 ft 425 kts 178°
2026-05-05 19:54 47.29313 8.49524 32887 ft 425 kts 178°
2026-05-05 19:55 47.23432 8.50373 32894 ft 424 kts 178°
2026-05-05 19:55 47.17558 8.51234 32901 ft 424 kts 178°
2026-05-05 19:56 47.11690 8.52081 32911 ft 423 kts 178°
2026-05-05 19:56 47.05825 8.52935 32911 ft 423 kts 179°
2026-05-05 19:57 47.00013 8.53777 32935 ft 421 kts 179°
2026-05-05 19:57 46.94183 8.54623 32940 ft 420 kts 179°
2026-05-05 19:58 46.88371 8.55466 32944 ft 419 kts 179°
2026-05-05 19:58 46.82575 8.56294 32929 ft 417 kts 179°
2026-05-05 19:59 46.76797 8.57113 32914 ft 417 kts 180°
2026-05-05 19:59 46.71009 8.57940 32945 ft 417 kts 180°
2026-05-05 20:00 46.65240 8.58764 32915 ft 416 kts 180°
2026-05-05 20:00 46.59483 8.59577 32983 ft 415 kts 181°
2026-05-05 20:01 46.53772 8.60388 32978 ft 414 kts 181°
2026-05-05 20:01 46.48045 8.61158 32903 ft 409 kts 184°
2026-05-05 20:01 46.45243 8.60971 32081 ft 401 kts 193°
2026-05-05 20:02 46.42519 8.60052 30840 ft 406 kts 202°
2026-05-05 20:02 46.39922 8.58424 29743 ft 404 kts 211°
2026-05-05 20:02 46.37590 8.56362 29206 ft 384 kts 214°
2026-05-05 20:02 46.35360 8.54363 28642 ft 369 kts 213°
2026-05-05 20:03 46.33212 8.52462 28097 ft 355 kts 213°
2026-05-05 20:03 46.31133 8.50633 27554 ft 344 kts 212°
2026-05-05 20:03 46.29001 8.49161 27062 ft 336 kts 203°
2026-05-05 20:03 46.26790 8.48223 26582 ft 329 kts 195°
2026-05-05 20:04 46.24526 8.47806 25976 ft 329 kts 186°
2026-05-05 20:04 46.22228 8.47939 25522 ft 331 kts 179°
2026-05-05 20:04 46.19942 8.48275 25101 ft 329 kts 179°
2026-05-05 20:04 46.17674 8.48602 24945 ft 324 kts 179°
2026-05-05 20:05 46.15472 8.48919 24793 ft 311 kts 179°
2026-05-05 20:05 46.13348 8.49227 24428 ft 302 kts 179°
2026-05-05 20:05 46.11279 8.49648 23919 ft 300 kts 173°
2026-05-05 20:05 46.09260 8.50477 23391 ft 302 kts 165°
2026-05-05 20:06 46.07304 8.51542 22768 ft 300 kts 165°
2026-05-05 20:06 46.05363 8.52594 22133 ft 297 kts 165°
2026-05-05 20:06 46.03450 8.53625 21672 ft 297 kts 165°
2026-05-05 20:06 46.01521 8.54664 21318 ft 295 kts 165°
2026-05-05 20:07 45.99602 8.55694 20953 ft 294 kts 165°
2026-05-05 20:07 45.97659 8.56732 20579 ft 293 kts 165°
2026-05-05 20:07 45.95773 8.57737 20233 ft 292 kts 165°
2026-05-05 20:07 45.93868 8.58754 20008 ft 291 kts 165°
2026-05-05 20:08 45.91966 8.59769 19992 ft 292 kts 166°
2026-05-05 20:08 45.90012 8.60423 19996 ft 287 kts 178°
2026-05-05 20:08 45.88035 8.60431 19998 ft 283 kts 190°
2026-05-05 20:08 45.86107 8.59921 19998 ft 281 kts 194°
2026-05-05 20:09 45.84185 8.59362 19991 ft 281 kts 194°
2026-05-05 20:09 45.82264 8.58810 19993 ft 281 kts 194°
2026-05-05 20:09 45.80346 8.58259 19993 ft 281 kts 194°
2026-05-05 20:09 45.78442 8.57709 19725 ft 278 kts 194°
2026-05-05 20:10 45.76551 8.57161 19300 ft 276 kts 194°
2026-05-05 20:10 45.74680 8.56733 18759 ft 277 kts 186°
2026-05-05 20:10 45.72751 8.56889 18215 ft 279 kts 176°
2026-05-05 20:10 45.70829 8.57272 17614 ft 278 kts 176°
2026-05-05 20:11 45.68914 8.57643 17061 ft 277 kts 176°
2026-05-05 20:11 45.67007 8.58007 16529 ft 276 kts 176°
2026-05-05 20:11 45.65110 8.58365 16008 ft 274 kts 176°
2026-05-05 20:11 45.63221 8.58723 15529 ft 275 kts 176°
2026-05-05 20:12 45.61332 8.59082 15245 ft 273 kts 176°
2026-05-05 20:12 45.59448 8.59441 14957 ft 273 kts 176°
2026-05-05 20:12 45.57565 8.59799 14662 ft 272 kts 176°
2026-05-05 20:12 45.55688 8.60094 14356 ft 270 kts 183°
2026-05-05 20:13 45.53893 8.59534 14052 ft 263 kts 208°
2026-05-05 20:13 45.52472 8.57944 13752 ft 261 kts 232°
2026-05-05 20:13 45.51674 8.55642 13407 ft 262 kts 256°
2026-05-05 20:13 45.51662 8.53050 13063 ft 266 kts 281°
2026-05-05 20:14 45.52467 8.50664 12712 ft 272 kts 307°
2026-05-05 20:14 45.53895 8.48900 12367 ft 277 kts 321°
2026-05-05 20:14 45.55464 8.47299 12030 ft 277 kts 322°
2026-05-05 20:14 45.57043 8.45726 11705 ft 276 kts 322°
2026-05-05 20:15 45.58620 8.44162 11396 ft 275 kts 322°
2026-05-05 20:15 45.60280 8.42811 11076 ft 278 kts 340°
2026-05-05 20:15 45.62196 8.42521 10767 ft 280 kts
2026-05-05 20:15 45.64006 8.43480 10444 ft 279 kts 35°
2026-05-05 20:16 45.64954 8.44711 10232 ft 278 kts 53°
2026-05-05 20:16 45.65791 8.47151 9923 ft 273 kts 80°
2026-05-05 20:16 45.65810 8.49805 9556 ft 266 kts 106°
2026-05-05 20:16 45.65056 8.52160 9182 ft 259 kts 131°
2026-05-05 20:17 45.63749 8.53895 8808 ft 256 kts 145°
2026-05-05 20:17 45.62317 8.55399 8435 ft 255 kts 147°
2026-05-05 20:17 45.60864 8.56854 8092 ft 254 kts 147°
2026-05-05 20:17 45.59415 8.58293 7842 ft 254 kts 147°
2026-05-05 20:18 45.57966 8.59728 7593 ft 253 kts 148°
2026-05-05 20:18 45.56356 8.60648 7332 ft 249 kts 174°
2026-05-05 20:18 45.54659 8.60430 7097 ft 245 kts 200°
2026-05-05 20:18 45.53225 8.59163 6998 ft 245 kts 225°
2026-05-05 20:19 45.52327 8.57101 6999 ft 249 kts 252°
2026-05-05 20:19 45.52174 8.54651 7002 ft 252 kts 278°
2026-05-05 20:19 45.52823 8.52374 7001 ft 255 kts 306°
2026-05-05 20:19 45.54129 8.50663 7004 ft 257 kts 323°
2026-05-05 20:20 45.55584 8.49166 7001 ft 258 kts 324°
2026-05-05 20:20 45.57052 8.47695 7001 ft 258 kts 324°
2026-05-05 20:20 45.58524 8.46225 6999 ft 258 kts 324°
2026-05-05 20:20 45.60031 8.44839 6993 ft 259 kts 335°
2026-05-05 20:21 45.61785 8.44358 6995 ft 260 kts
2026-05-05 20:21 45.63500 8.45123 6999 ft 260 kts 33°
2026-05-05 20:21 45.64749 8.46958 6998 ft 259 kts 62°
2026-05-05 20:21 45.65246 8.49396 6999 ft 257 kts 90°
2026-05-05 20:22 45.64894 8.51856 7008 ft 254 kts 118°
2026-05-05 20:22 45.63804 8.53793 7009 ft 251 kts 143°
2026-05-05 20:22 45.62398 8.55289 7000 ft 252 kts 146°
2026-05-05 20:22 45.60964 8.56734 7000 ft 252 kts 146°
2026-05-05 20:23 45.59524 8.58166 7001 ft 252 kts 146°
2026-05-05 20:23 45.58106 8.59579 7002 ft 252 kts 147°
2026-05-05 20:23 45.56523 8.60590 6995 ft 250 kts 171°
2026-05-05 20:23 45.54818 8.60468 7009 ft 246 kts 198°
2026-05-05 20:24 45.53350 8.59264 7001 ft 246 kts 224°
2026-05-05 20:24 45.52420 8.57229 7000 ft 249 kts 251°
2026-05-05 20:24 45.52247 8.54780 7001 ft 252 kts 278°
2026-05-05 20:24 45.52899 8.52468 7000 ft 255 kts 306°
2026-05-05 20:25 45.54208 8.50760 7010 ft 258 kts 323°
2026-05-05 20:25 45.55666 8.49266 7000 ft 258 kts 324°
2026-05-05 20:25 45.57136 8.47794 7005 ft 258 kts 324°
2026-05-05 20:25 45.58610 8.46325 6999 ft 258 kts 324°
2026-05-05 20:26 45.60122 8.44951 6994 ft 259 kts 336°
2026-05-05 20:26 45.61886 8.44539 7000 ft 260 kts
2026-05-05 20:26 45.63576 8.45388 7000 ft 260 kts 35°
2026-05-05 20:26 45.64778 8.47287 7000 ft 259 kts 64°
2026-05-05 20:27 45.65198 8.49749 6998 ft 256 kts 93°
2026-05-05 20:27 45.64760 8.52178 7004 ft 253 kts 121°
2026-05-05 20:27 45.63600 8.54028 7009 ft 251 kts 144°
2026-05-05 20:27 45.62205 8.55481 7000 ft 252 kts 147°
2026-05-05 20:28 45.60622 8.56486 6883 ft 248 kts 166°
2026-05-05 20:28 45.58979 8.57119 6666 ft 241 kts 166°
2026-05-05 20:28 45.57366 8.57719 6449 ft 238 kts 166°
2026-05-05 20:28 45.55764 8.58312 6219 ft 238 kts 166°
2026-05-05 20:29 45.54166 8.58908 6050 ft 237 kts 166°
2026-05-05 20:29 45.52568 8.59506 6003 ft 236 kts 166°
2026-05-05 20:29 45.50982 8.60100 6007 ft 235 kts 166°
2026-05-05 20:29 45.49404 8.60690 6007 ft 234 kts 166°
2026-05-05 20:30 45.47828 8.61277 6006 ft 234 kts 166°
2026-05-05 20:30 45.46253 8.61865 6008 ft 234 kts 166°
2026-05-05 20:30 45.44676 8.62455 6008 ft 234 kts 166°
2026-05-05 20:30 45.43123 8.63037 6009 ft 233 kts 166°
2026-05-05 20:31 45.41553 8.63622 6012 ft 233 kts 166°
2026-05-05 20:31 45.39986 8.64205 6009 ft 233 kts 166°
2026-05-05 20:31 45.38420 8.64788 6009 ft 233 kts 166°
2026-05-05 20:31 45.36854 8.65372 6009 ft 233 kts 166°
2026-05-05 20:32 45.35268 8.65966 6011 ft 233 kts 166°
2026-05-05 20:32 45.33708 8.66484 6009 ft 232 kts 169°
2026-05-05 20:32 45.32177 8.66915 6006 ft 217 kts 170°
2026-05-05 20:32 45.30714 8.67305 6007 ft 212 kts 171°
2026-05-05 20:33 45.29269 8.67686 6009 ft 211 kts 171°
2026-05-05 20:33 45.27825 8.68072 6007 ft 211 kts 170°
2026-05-05 20:33 45.26385 8.68462 6010 ft 211 kts 170°
2026-05-05 20:33 45.24942 8.68853 6007 ft 211 kts 170°
2026-05-05 20:34 45.23501 8.69245 6006 ft 211 kts 170°
2026-05-05 20:34 45.22057 8.69638 6005 ft 211 kts 170°
2026-05-05 20:34 45.20614 8.70031 6003 ft 211 kts 170°
2026-05-05 20:34 45.19170 8.70425 5985 ft 211 kts 170°
2026-05-05 20:35 45.17726 8.70819 5982 ft 211 kts 170°
2026-05-05 20:35 45.16287 8.71244 5977 ft 212 kts 164°
2026-05-05 20:35 45.15083 8.72415 5983 ft 216 kts 128°
2026-05-05 20:35 45.14540 8.74400 5802 ft 222 kts 95°
2026-05-05 20:36 45.14627 8.76548 5559 ft 222 kts 85°
2026-05-05 20:36 45.14837 8.78710 5306 ft 221 kts 84°
2026-05-05 20:36 45.15064 8.80884 5053 ft 220 kts 84°
2026-05-05 20:36 45.15355 8.83008 4794 ft 221 kts 71°
2026-05-05 20:37 45.16201 8.84801 4540 ft 222 kts 41°
2026-05-05 20:37 45.17549 8.85773 4286 ft 222 kts 11°
2026-05-05 20:37 45.19069 8.85696 4049 ft 219 kts 347°
2026-05-05 20:37 45.20561 8.85255 3972 ft 219 kts 348°
2026-05-05 20:38 45.22054 8.84826 3981 ft 219 kts 348°
2026-05-05 20:38 45.23558 8.84395 3982 ft 220 kts 348°
2026-05-05 20:38 45.25055 8.83969 4001 ft 219 kts 348°
2026-05-05 20:38 45.26547 8.83544 4003 ft 218 kts 348°
2026-05-05 20:39 45.28036 8.83120 4003 ft 218 kts 348°
2026-05-05 20:39 45.29526 8.82696 4005 ft 218 kts 348°
2026-05-05 20:39 45.31016 8.82271 4005 ft 218 kts 348°
2026-05-05 20:39 45.32504 8.81847 4007 ft 218 kts 348°
2026-05-05 20:40 45.33993 8.81422 4006 ft 218 kts 348°
2026-05-05 20:40 45.35482 8.80997 4007 ft 218 kts 348°
2026-05-05 20:40 45.36969 8.80573 4007 ft 218 kts 348°
2026-05-05 20:40 45.38456 8.80147 4007 ft 218 kts 348°
2026-05-05 20:41 45.39951 8.79720 4010 ft 218 kts 348°
2026-05-05 20:41 45.41439 8.79295 4007 ft 218 kts 348°
2026-05-05 20:41 45.42928 8.78878 4008 ft 218 kts 348°
2026-05-05 20:41 45.44421 8.78468 4006 ft 218 kts 349°
2026-05-05 20:42 45.45914 8.78059 3844 ft 218 kts 349°
2026-05-05 20:42 45.47399 8.77651 3578 ft 217 kts 349°
2026-05-05 20:42 45.48879 8.77245 3290 ft 217 kts 349°
2026-05-05 20:42 45.50352 8.76840 3004 ft 213 kts 349°
2026-05-05 20:43 45.51774 8.76449 2737 ft 201 kts 350°
2026-05-05 20:43 45.53100 8.76084 2472 ft 190 kts 350°
2026-05-05 20:43 45.54350 8.75740 2210 ft 175 kts 350°
2026-05-05 20:43 45.55498 8.75424 2002 ft 160 kts 351°
2026-05-05 20:44 45.56543 8.75136 1781 ft 147 kts 351°
2026-05-05 20:44 45.57523 8.74866 1573 ft 140 kts 350°
2026-05-05 20:44 45.58464 8.74607 1380 ft 135 kts 350°
2026-05-05 20:44 45.59378 8.74355 1194 ft 133 kts 349°
2026-05-05 20:45 45.61157 8.73863 851 ft 130 kts 349°
2026-05-05 20:45 45.62024 8.73626 716 ft 116 kts 349°
2026-05-05 20:45 45.62676 8.73444 730 ft 70 kts 349°
2026-05-05 20:46 45.62991 8.73356 730 ft 30 kts 348°
2026-05-05 20:46 45.63162 8.73236 736 ft 26 kts 322°
2026-05-05 20:46 45.63272 8.73056 741 ft 20 kts 304°
2026-05-05 20:46 45.63346 8.72900 743 ft 16 kts 302°
2026-05-05 20:47 45.63360 8.72865 743 ft 0 kts 301°
2026-05-05 20:48 45.63361 8.72862 744 ft 1 kts 301°
2026-05-05 20:48 45.63374 8.72831 744 ft 8 kts 300°
2026-05-05 20:48 45.63421 8.72734 744 ft 15 kts 318°
2026-05-05 20:48 45.63525 8.72686 748 ft 16 kts 349°
2026-05-05 20:49 45.63630 8.72656 748 ft 15 kts 349°
2026-05-05 20:49 45.63734 8.72629 751 ft 15 kts 351°
2026-05-05 20:49 45.63840 8.72597 753 ft 16 kts 348°
2026-05-05 20:49 45.63935 8.72568 755 ft 12 kts 336°
2026-05-05 20:50 45.63949 8.72484 754 ft 8 kts 260°
2026-05-05 20:50 45.63943 8.72433 757 ft 0 kts 260°
2026-05-05 20:51 45.63943 8.72432 757 ft 0 kts 260°
2026-05-05 20:52 45.63941 8.72418 758 ft 3 kts 261°
2026-05-05 20:52 45.63942 8.72375 758 ft 6 kts 287°
2026-05-05 20:52 45.63980 8.72334 755 ft 8 kts 345°
2026-05-05 20:52 45.64043 8.72323 757 ft 10 kts 351°
2026-05-05 20:53 45.64115 8.72305 762 ft 11 kts 345°
2026-05-05 20:53 45.64195 8.72280 763 ft 12 kts 350°
2026-05-05 20:53 45.64270 8.72260 765 ft 10 kts 350°
2026-05-05 20:53 45.64336 8.72242 766 ft 9 kts 349°
2026-05-05 20:54 45.64396 8.72229 767 ft 9 kts
2026-05-05 20:54 45.64433 8.72291 767 ft 10 kts 83°
2026-05-05 20:54 45.64444 8.72395 767 ft 11 kts 82°
2026-05-05 20:54 45.64460 8.72511 767 ft 12 kts 79°
2026-05-05 20:55 45.64476 8.72633 766 ft 12 kts 70°
2026-05-05 20:55 45.64544 8.72641 768 ft 10 kts 345°
2026-05-05 20:55 45.64607 8.72618 769 ft 9 kts 346°
2026-05-05 20:55 45.64664 8.72599 770 ft 8 kts 348°
2026-05-05 20:56 45.64715 8.72585 771 ft 7 kts 349°
2026-05-05 20:56 45.64766 8.72573 771 ft 8 kts 351°
2026-05-05 20:56 45.64798 8.72539 771 ft 5 kts 261°
2026-05-05 20:56 45.64785 8.72491 771 ft 5 kts 251°
2026-05-05 20:57 45.64781 8.72462 771 ft 0 kts 260°